Location: Notre Dame Regional High School Observatory
(37.3056°N, 89.6097°W)
Time: 16:53:23
(UTC-05:00)

Okean-O - Visible Passes

Search period start: 19 September 2014 00:00
Search period end: 29 September 2014 00:00
Orbit: 642 x 645 km, 98.1° (Epoch: 18 September)

Date Brightness Start Highest point End Pass type
(mag) Time Alt. Az. Time Alt. Az. Time Alt. Az.
19 Sep 3.0 04:23:21 10° NNE 04:27:04 61° NNE 04:27:04 61° NNE visible
20 Sep 5.7 03:13:50 10° ENE 03:14:13 11° ENE 03:14:13 11° ENE visible
20 Sep 2.9 04:48:02 10° N 04:51:52 51° NW 04:51:52 51° NW visible
21 Sep 5.1 03:36:50 10° NE 03:39:01 20° ENE 03:39:01 20° ENE visible
21 Sep 3.6 05:13:02 10° N 05:16:40 29° WNW 05:16:40 29° WNW visible
22 Sep 4.2 04:00:50 10° NNE 04:03:48 34° ENE 04:03:48 34° ENE visible
22 Sep 4.2 05:38:30 10° NNW 05:41:16 16° WNW 05:41:27 16° WNW visible
23 Sep 3.3 04:25:15 10° NNE 04:28:36 51° NNE 04:28:36 51° NNE visible
24 Sep 5.8 03:15:32 10° ENE 03:15:44 10° ENE 03:15:44 10° ENE visible
24 Sep 3.2 04:49:57 10° N 04:53:23 44° NW 04:53:23 44° NW visible
25 Sep 5.2 03:38:40 10° NE 03:40:31 19° ENE 03:40:31 19° ENE visible
25 Sep 3.7 05:14:58 10° NNW 05:18:10 27° NW 05:18:10 27° NW visible
26 Sep 4.4 04:02:42 10° NNE 04:05:18 30° NE 04:05:18 30° NE visible
26 Sep 4.3 05:40:29 10° NNW 05:42:57 16° WNW 05:42:57 16° WNW visible
27 Sep 3.6 04:27:07 10° NNE 04:30:04 42° NNE 04:30:04 42° NNE visible
28 Sep 3.5 04:51:50 10° N 04:54:51 37° NNW 04:54:51 37° NNW visible
